STARLINK-32014 (60150 NORAD) Tracking and Keplerian Element Data

This shows tracking and keplerian element data for the satellite.

Feedback or suggestion? Click here.




ElementValue
Catalog60150
NameSTARLINK-32014
Epoch Orbit1773
Epoch Day286.44408678
Epoch Year2024
RAAN188.3264
Inclination53.1585
Eccentricity0.0001267
Argument of Perigee60.4073
Mean Anonmoly299.7058
Mean Motion15.39709977
Decay Rate0.0022732
L11 60150U 24120R 24286.44408678 .00227320 00000+0 55089-2 0 9998
L22 60150 53.1585 188.3264 0001267 60.4073 299.7058 15.39709977 17734



Live tracking and technical data element details for STARLINK-32014 (NORAD 60150). STARLINK-32014 can be tracked NOW for your location showing map with azimuth and elevation plus other details from your city location.







IsCatalogInMostPopularTable: catalog: 60150, numindb: 10
Update: records affected: 1



GetName: 60150 STARLINK-32014

Hit Count: updated at: Thu, 23 Jan 2025 14:36:39 GMT